Lemoore, CA

5:18 PM PST on February 10, 2016 (GMT -0800)
Lemoore Naval Air Station

Weather History for KNLC - January, 2013

Change the Weather History Date:

Monday, January 28, 2013

  Actual Average Record
Temperature  
Mean Temperature 42 °F -  
Max Temperature 55 °F 55 °F 73 °F (2014)
Min Temperature 28 °F 38 °F 28 °F (2013)
Degree Days  
Heating Degree Days 24    
Moisture  
Dew Point 32 °F    
Average Humidity 72    
Maximum Humidity 93    
Minimum Humidity 44    
Precipitation  
Precipitation 0.00 in - - ()
Sea Level Pressure  
Sea Level Pressure 30.21 in    
Wind  
Wind Speed 6 mph (NW)    
Max Wind Speed 16 mph    
Max Gust Speed 20 mph    
Visibility 10 miles    
Events      
Averages and records for this station are not official NWS values.
T = Trace of Precipitation, MM = Missing Value Source: NWS Daily Summary

Daily Weather History Graph

Daily Weather History Graph

Search for Another Location

Airport or City:

Trip Planner

Search our weather history database for the weather conditions in past years. The results will help you decide how hot, cold, wet, or windy it might be!

Date:

Astronomy

Jan. 28, 2013 Rise Set
Actual Time 7:03 AM PST 5:22 PM PST
Civil Twilight 6:36 AM PST 5:49 PM PST
Nautical Twilight 6:05 AM PST 6:20 PM PST
Astronomical Twilight 5:35 AM PST 6:51 PM PST
Moon 7:17 PM PST (1/28) 7:36 AM PST (1/28)
Length of Visible Light 11h 13m
Length of Day
10h 18m
Full, 97% of the Moon is Illuminated
Jan 28
Full
Feb 3
Last Quarter
Feb 9
New
Feb 17
First Quarter
Feb 25
Full

Hourly Weather History & Observations

Time (PST) Temp. Windchill Dew Point Humidity Pressure Visibility Wind Dir Wind Speed Gust Speed Precip Events Conditions
12:56 AM 36.0 °F 31.1 °F 30.9 °F 82% 30.14 in 10.0 mi West 5.8 mph - N/A   Clear
1:56 AM 33.1 °F 30.0 °F 28.0 °F 82% 30.15 in 10.0 mi NE 3.5 mph - N/A   Clear
2:56 AM 33.1 °F 30.0 °F 30.0 °F 89% 30.16 in 10.0 mi NE 3.5 mph - N/A   Clear
3:56 AM 30.9 °F 27.5 °F 28.0 °F 89% 30.14 in 10.0 mi South 3.5 mph - N/A   Clear
4:56 AM 30.0 °F 26.5 °F 28.0 °F 92% 30.15 in 10.0 mi WSW 3.5 mph - N/A   Clear
5:56 AM 28.0 °F 21.7 °F 26.1 °F 92% 30.16 in 10.0 mi West 5.8 mph - N/A   Clear
6:56 AM 30.0 °F 23.2 °F 27.0 °F 88% 30.17 in 10.0 mi WNW 6.9 mph - N/A   Clear
7:09 AM 28.4 °F 21.2 °F 26.6 °F 93% 30.17 in 10.0 mi WNW 6.9 mph - N/A   Clear
7:56 AM 34.0 °F 28.8 °F 30.9 °F 89% 30.19 in 10.0 mi WNW 5.8 mph - N/A   Partly Cloudy
8:56 AM 41.0 °F 38.0 °F 36.0 °F 82% 30.22 in 10.0 mi NNW 4.6 mph - N/A   Partly Cloudy
9:56 AM 44.1 °F 41.5 °F 37.0 °F 76% 30.22 in 10.0 mi NW 4.6 mph - N/A   Partly Cloudy
10:56 AM 50.0 °F - 36.0 °F 59% 30.23 in 10.0 mi North 9.2 mph - N/A   Mostly Cloudy
11:56 AM 53.1 °F - 33.1 °F 47% 30.22 in 10.0 mi NNW 15.0 mph - N/A   Scattered Clouds
12:56 PM 54.0 °F - 34.0 °F 47% 30.21 in 9.0 mi North 13.8 mph 18.4 mph N/A   Scattered Clouds
1:56 PM 55.0 °F - 35.1 °F 47% 30.20 in 10.0 mi NNW 10.4 mph - N/A   Scattered Clouds
2:56 PM 55.9 °F - 34.0 °F 44% 30.20 in 10.0 mi North 12.7 mph 19.6 mph N/A   Mostly Cloudy
3:56 PM 54.0 °F - 34.0 °F 47% 30.21 in 10.0 mi North 16.1 mph - N/A   Mostly Cloudy
4:56 PM 51.1 °F - 36.0 °F 56% 30.21 in 10.0 mi North 6.9 mph - N/A   Scattered Clouds
5:56 PM 45.0 °F 43.5 °F 34.0 °F 65% 30.23 in 10.0 mi NE 3.5 mph - N/A   Scattered Clouds
6:56 PM 44.1 °F 40.8 °F 33.1 °F 65% 30.25 in 10.0 mi North 5.8 mph - N/A   Partly Cloudy
7:56 PM 41.0 °F 37.1 °F 33.1 °F 73% 30.26 in 10.0 mi WSW 5.8 mph - N/A   Partly Cloudy
8:56 PM 42.1 °F - 33.1 °F 70% 30.27 in 10.0 mi Calm Calm - N/A   Scattered Clouds
9:56 PM 39.0 °F 35.7 °F 30.9 °F 73% 30.27 in 10.0 mi SW 4.6 mph - N/A   Partly Cloudy
10:56 PM 37.9 °F 35.5 °F 30.9 °F 76% 30.27 in 10.0 mi WSW 3.5 mph - N/A   Partly Cloudy
11:56 PM 35.1 °F 31.0 °F 30.0 °F 82% 30.27 in 10.0 mi SW 4.6 mph - N/A   Partly Cloudy